EW0322 Weather Reports


Display with metric or nautical units.
time (UTC)temp
F
wind
direction
speed
MPH
gust
MPH
rain 1hr
in
rain 24hr
in
rain mn
in
humidity
%
barometer
mb
20260506204550 76 247 4.0 15.0 0.00 0.00 0.00 18 1006.5
20260506203130 78 231 3.0 10.0 0.00 0.00 0.00 16 1006.5
20260506201547 77 268 0.0 8.0 0.00 0.00 0.00 17 1006.9
20260506200047 76 234 1.0 5.0 0.00 0.00 0.00 19 1007.0
20260506194539 75 242 2.0 11.0 0.00 0.00 0.00 19 1007.1
20260506193037 74 238 2.0 12.0 0.00 0.00 0.00 19 1007.4
20260506191538 74 237 3.0 15.0 0.00 0.00 0.00 19 1007.5
20260506190045 74 240 3.0 15.0 0.00 0.00 0.00 18 1007.7
20260506184541 74 238 1.0 11.0 0.00 0.00 0.00 20 1007.8
20260506183032 74 241 3.0 10.0 0.00 0.00 0.00 20 1007.8
20260506181533 73 241 5.0 9.0 0.00 0.00 0.00 21 1007.9
20260506180029 73 240 2.0 10.0 0.00 0.00 0.00 23 1008.1
20260506174526 72 244 0.0 10.0 0.00 0.00 0.00 24 1008.1
20260506173022 73 238 0.0 5.0 0.00 0.00 0.00 25 1008.1
20260506171520 72 237 2.0 8.0 0.00 0.00 0.00 26 1008.2
20260506170015 71 240 1.0 5.0 0.00 0.00 0.00 26 1008.4
20260506164514 72 239 1.0 7.0 0.00 0.00 0.00 27 1008.2
20260506163015 71 241 0.0 4.0 0.00 0.00 0.00 28 1008.2
20260506161505 69 236 0.0 7.0 0.00 0.00 0.00 29 1008.4
20260506160108 70 259 0.0 7.0 0.00 0.00 0.00 29 1008.3
20260506154556 69 232 1.0 6.0 0.00 0.00 0.00 29 1008.3
20260506153107 69 228 0.0 7.0 0.00 0.00 0.00 29 1008.3
20260506151548 69 222 1.0 4.0 0.00 0.00 0.00 30 1008.2
20260506150044 67 211 0.0 6.0 0.00 0.00 0.00 32 1008.3
20260506144539 65 212 0.0 1.0 0.00 0.00 0.00 34 1008.4
20260506143035 64 256 1.0 3.0 0.00 0.00 0.00 34 1008.3
20260506141530 63 256 0.0 3.0 0.00 0.00 0.00 35 1008.4
20260506140029 62 257 0.0 2.0 0.00 0.00 0.00 35 1008.2
20260506134520 62 257 0.0 1.0 0.00 0.00 0.00 35 1008.1
20260506133017 61 257 0.0 0.0 0.00 0.00 0.00 37 1007.9
20260506131518 59 256 0.0 0.0 0.00 0.00 0.00 38 1007.8
20260506130008 58 256 0.0 0.0 0.00 0.00 0.00 39 1007.5
20260506124506 58 256 0.0 0.0 0.00 0.00 0.00 39 1007.4
20260506123008 57 257 0.0 0.0 0.00 0.00 0.00 38 1007.1
20260506121501 58 256 0.0 1.0 0.00 0.00 0.00 38 1006.9
20260506120059 58 257 0.0 0.0 0.00 0.00 0.00 37 1006.8
20260506114557 59 257 0.0 0.0 0.00 0.00 0.00 36 1006.6
20260506113055 59 257 0.0 0.0 0.00 0.00 0.00 36 1006.5
20260506111552 59 257 0.0 0.0 0.00 0.00 0.00 35 1006.3
20260506110048 60 257 0.0 0.0 0.00 0.00 0.00 34 1006.2
20260506104547 61 257 0.0 0.0 0.00 0.00 0.00 33 1006.0
20260506103042 62 257 0.0 1.0 0.00 0.00 0.00 32 1005.9
20260506101539 62 257 0.0 2.0 0.00 0.00 0.00 32 1005.5
20260506100038 62 256 0.0 2.0 0.00 0.00 0.00 32 1005.4
20260506094535 63 256 0.0 2.0 0.00 0.00 0.00 32 1005.3
20260506093033 64 256 0.0 2.0 0.00 0.00 0.00 31 1005.2
20260506091530 64 256 0.0 2.0 0.00 0.00 0.00 31 1005.1
20260506090026 65 256 0.0 4.0 0.00 0.00 0.00 29 1004.9
20260506084534 66 248 0.0 4.0 0.00 0.00 0.00 27 1004.7
20260506083025 66 242 0.0 4.0 0.00 0.00 0.00 24 1004.6
20260506081520 66 238 0.0 2.0 0.00 0.00 0.00 25 1004.6
20260506073015 68 238 0.0 5.0 0.00 0.00 0.00 24 1004.8
20260506071512 69 237 0.0 5.0 0.00 0.00 0.00 23 1004.6
20260506061507 70 244 0.0 3.0 0.00 0.00 0.00 21 1004.4
20260506044503 71 237 0.0 4.0 0.00 0.00 0.00 19 1003.7
20260506043101 72 242 1.0 8.0 0.00 0.00 0.00 19 1003.6
20260506041605 72 245 0.0 3.0 0.00 0.00 0.00 18 1003.5
20260506040059 72 242 0.0 5.0 0.00 0.00 0.00 17 1003.3
20260506034602 73 241 0.0 4.0 0.00 0.00 0.00 16 1003.0
20260506033058 73 246 1.0 4.0 0.00 0.00 0.00 15 1002.7
20260506031557 74 233 1.0 8.0 0.00 0.00 0.00 16 1002.4
20260506030057 74 240 1.0 5.0 0.00 0.00 0.00 18 1002.1
20260506024606 74 233 2.0 10.0 0.00 0.00 0.00 18 1002.0
20260506023108 75 242 2.0 7.0 0.00 0.00 0.00 20 1001.8
20260506021554 75 242 3.0 8.0 0.00 0.00 0.00 19 1001.5
20260506020056 75 238 2.0 9.0 0.00 0.00 0.00 18 1001.3
20260506014553 76 234 4.0 13.0 0.00 0.00 0.00 19 1001.0
20260506013056 76 243 1.0 9.0 0.00 0.00 0.00 19 1000.9
20260506011551 76 236 2.0 11.0 0.00 0.00 0.00 19 1000.8
20260506010050 76 245 1.0 17.0 0.00 0.00 0.00 19 1000.6
20260506004552 77 238 2.0 12.0 0.00 0.00 0.00 19 1000.5
20260506003052 77 242 4.0 12.0 0.00 0.00 0.00 19 1000.5
20260506001555 77 230 3.0 8.0 0.00 0.00 0.00 22 1000.6
20260506000052 77 236 0.0 4.0 0.00 0.00 0.00 26 1000.5
20260505234546 76 232 0.0 5.0 0.00 0.00 0.00 27 1000.6
20260505233051 77 237 3.0 10.0 0.00 0.00 0.00 27 1000.7
20260505231547 78 238 2.0 8.0 0.00 0.00 0.00 27 1000.8
20260505230108 78 246 1.0 8.0 0.00 0.00 0.00 27 1000.9
20260505224541 78 261 0.0 5.0 0.00 0.00 0.00 28 1001.1
20260505223044 78 237 4.0 14.0 0.00 0.00 0.00 28 1001.2
20260505221544 79 237 0.0 6.0 0.00 0.00 0.00 27 1001.4
20260505220049 79 244 1.0 10.0 0.00 0.00 0.00 27 1001.8
20260505214536 78 235 3.0 11.0 0.00 0.00 0.00 27 1001.7
20260505213034 78 244 1.0 9.0 0.00 0.00 0.00 28 1002.1
20260505211531 79 243 0.0 5.0 0.00 0.00 0.00 27 1002.2
20260505210026 77 238 3.0 9.0 0.00 0.00 0.00 28 1002.4